Content
SEND FEEDBACK

Daily
Averages
Monthly
Summary
Canada

YELLOWKNIFE, NORTHWEST TERRITORIES


Home > North America > Canada > Northwest Territories
Elevation: 676 feet     Latitude: 62 28N     Longitude: 114 27W

WEATHER
 
SELECT A DAY
Number of Records: 190,998;   Date Range: 1/1/95 - 8/20/14
 
SHARE

PRINT THIS DATA

[ ← Previous Day ]
WEATHER ALMANAC - FEBRUARY 14, 2013
[ Next Day → ]
[ °C ]   °F
Weather ElementAverageHighLow
Temperature-0.7 °F5 °F (3:00 pm)-13 °F (6:00 am)
Dewpoint-4 °F3.2 °F (3:46 pm)-16.6 °F (6:00 am)
Humidity85.1 %92 % (1:00 pm)75 % (5:00 am)
Barometer30.21 in30.27 in (6:22 am)30.09 in (11:00 pm)
Wind Speed7.6 mph13.8 mph (3:00 pm)
Wind Gust20.7 mph (3:00 pm)
Weather ElementAverage
Visibility10.9 mi
Wind DirectionSSE (141.6 °)

Weather ElementTotal
Precipitation---
Heating Degree Days69 (Base 65)
Averaged from 38 records on February 14, 2013
WEATHER CONDITIONS BREAKOUT
WIND DIRECTION BREAKOUT
WEATHER BY HOUR - FEBRUARY 14, 2013
[ °C ]   °F
Local TimeTemperatureDewpointHumidityBarometerVisibilityWind DirectionWind SpeedGust SpeedPrecipitationEventsConditions
1:00 AM-5.8 °F-9.4 °F84 %30.21 in15.0 miCalmSnowLight Snow
2:00 AM-4.0 °F-9.4 °F78 %30.25 in15.0 miCalmSnowLight Snow
3:00 AM-7.6 °F-11.2 °F84 %30.25 in15.0 miCalmSnowLight Snow
4:00 AM-7.6 °F-11.2 °F84 %30.26 in15.0 miSE (140°)2.3 mphSnowLight Snow
5:00 AM-9.0 °F-13.0 °F75 %30.26 in15.0 miSSE (150°)3.5 mphSnowLight Snow
5:00 AM-9.4 °F-13.0 °F84 %30.26 in15.0 miSSE (160°)3.5 mphScattered Clouds
6:00 AM-13.0 °F-16.6 °F84 %30.26 in15.0 miSSE (160°)5.8 mphPartly Cloudy
6:22 AM-11.2 °F-14.8 °F84 %30.27 in15.0 miSSE (160°)6.9 mphMostly Cloudy
7:00 AM-7.6 °F-13.0 °F77 %30.26 in15.0 miSSE (160°)5.8 mphOvercast
7:08 AM-5.8 °F-11.2 °F77 %30.27 in15.0 miSSE (160°)5.8 mphSnowLight Snow
8:00 AM-4.0 °F-9.4 °F78 %30.27 in15.0 miSouth (170°)8.1 mphSnowLight Snow
9:00 AM-4.0 °F-7.6 °F85 %30.25 in10.0 miSSE (150°)9.2 mphSnowLight Snow
10:00 AM-2.2 °F-5.8 °F85 %30.25 in10.0 miSSE (160°)9.2 mphSnowLight Snow
10:06 AM-2.2 °F-5.8 °F85 %30.25 in15.0 miSSE (160°)9.2 mphSnowLight Snow
10:32 AM-2.2 °F-5.8 °F85 %30.25 in1.0 miSSE (150°)9.2 mphSnowLight Snow
10:35 AM-2.2 °F-5.8 °F85 %30.25 in15.0 miSSE (150°)9.2 mphSnowLight Snow Showers
11:00 AM-1.0 °F-4.0 °F80 %30.24 in6.0 miSSE (150°)10.4 mphSnowLight Snow Showers
11:00 AM-0.4 °F-4.0 °F85 %30.24 in6.0 miSSE (150°)9.2 mphSnowLight Snow Showers
11:30 AM1.4 °F-2.2 °F85 %30.25 in5.0 miSouth (170°)9.2 mphSnowLight Snow
12:00 PM1.4 °F-2.2 °F85 %30.24 in5.0 miSouth (170°)9.2 mphSnowLight Snow
1:00 PM1.4 °F-0.4 °F92 %30.22 in15.0 miSSE (150°)10.4 mphSnowLight Snow
2:00 PM3.2 °F-0.4 °F85 %30.22 in10.0 miSSE (160°)12.7 mphSnowLight Snow
3:00 PM5.0 °F1.4 °F85 %30.21 in15.0 miSSE (160°)13.8 mph20.7 mphSnowLight Snow
3:46 PM5.0 °F3.2 °F92 %30.20 in15.0 miSE (140°)8.1 mphOvercast
4:00 PM5.0 °F3.2 °F92 %30.21 in15.0 miSSE (150°)9.2 mphMostly Cloudy
5:00 PM4.0 °F1.0 °F79 %30.20 in15.0 miSouth (180°)6.9 mphSnowLight Snow
5:00 PM5.0 °F1.4 °F85 %30.20 in15.0 miSouth (180°)6.9 mphSnowLight Snow
6:00 PM3.2 °F-0.4 °F85 %30.21 in15.0 miSSE (160°)6.9 mphSnowLight Snow
7:00 PM5.0 °F1.4 °F85 %30.19 in15.0 miSSE (150°)9.2 mphSnowLight Snow
8:00 PM3.2 °F1.4 °F92 %30.17 in15.0 miSSE (160°)9.2 mphSnowLight Snow
9:00 PM5.0 °F1.4 °F85 %30.14 in15.0 miSSE (150°)9.2 mphSnowLight Snow
9:24 PM5.0 °F1.4 °F85 %30.13 in6.0 miSE (140°)9.2 mphSnowLight Snow
10:00 PM3.2 °F1.4 °F92 %30.12 in2.0 miSE (140°)8.1 mphSnowLight Snow
10:09 PM3.2 °F1.4 °F92 %30.12 in1.5 miSSE (150°)9.2 mphSnowLight Snow
10:36 PM3.2 °F1.4 °F92 %30.11 in1.0 miSSE (150°)8.1 mphSnowLight Snow
11:00 PM4.0 °F1.0 °F81 %30.09 in2.0 miSE (130°)9.2 mphSnowLight Snow
11:00 PM3.2 °F1.4 °F92 %30.09 in2.0 miSE (130°)9.2 mphSnowLight Snow
11:09 PM3.2 °F1.4 °F92 %30.09 in3.0 miSE (130°)9.2 mphSnowLight Snow
Hourly data recorded from CYZF, located miles away from Yellowknife, Northwest Territories







STORIES FROM OUR PARTNERS